Time,TemperatureF,DewpointF,PressureIn,WindDirection,WindDirectionDegrees,WindSpeedMPH,WindSpeedGustMPH,Humidity,HourlyPrecipIn,Conditions,Clouds,dailyrainin,SoftwareType,DateUTC
2013-08-07 00:05:00,89.9,63.0,29.67,SSE,158,7.0,12.0,40,0.00,,,0.00,weatherlink.com 1.10,2013-08-07 06:05:00,
2013-08-07 00:20:00,89.9,63.0,29.67,SSE,152,3.0,13.0,40,0.00,,,0.00,weatherlink.com 1.10,2013-08-07 06:20:00,
2013-08-07 00:35:00,89.3,63.0,29.68,SE,145,0.0,12.0,41,0.00,,,0.00,weatherlink.com 1.10,2013-08-07 06:35:00,
2013-08-07 00:50:00,88.3,63.0,29.69,SSE,151,0.0,6.0,43,0.00,,,0.00,weatherlink.com 1.10,2013-08-07 06:50:00,
2013-08-07 01:05:00,87.8,63.0,29.69,SSE,156,0.0,1.0,44,0.00,,,0.00,weatherlink.com 1.10,2013-08-07 07:05:00,
2013-08-07 01:20:00,87.2,63.0,29.68,SSE,156,0.0,2.0,45,0.00,,,0.00,weatherlink.com 1.10,2013-08-07 07:20:00,
2013-08-07 01:35:00,87.0,63.0,29.68,SSE,156,1.0,3.0,45,0.00,,,0.00,weatherlink.com 1.10,2013-08-07 07:35:00,
2013-08-07 01:50:00,87.3,63.0,29.68,SSE,158,0.0,4.0,45,0.00,,,0.00,weatherlink.com 1.10,2013-08-07 07:50:00,
2013-08-07 02:05:00,87.3,64.0,29.68,SSE,160,0.0,2.0,46,0.00,,,0.00,weatherlink.com 1.10,2013-08-07 08:05:00,
2013-08-07 02:20:00,86.9,64.0,29.68,SSE,162,0.0,4.0,46,0.00,,,0.00,weatherlink.com 1.10,2013-08-07 08:20:00,
2013-08-07 02:35:00,86.3,64.0,29.68,SSE,161,0.0,3.0,47,0.00,,,0.00,weatherlink.com 1.10,2013-08-07 08:35:00,
2013-08-07 02:50:00,85.7,64.0,29.69,SSE,161,0.0,1.0,48,0.00,,,0.00,weatherlink.com 1.10,2013-08-07 08:50:00,
2013-08-07 03:05:00,85.1,64.0,29.68,SSE,161,0.0,2.0,49,0.00,,,0.00,weatherlink.com 1.10,2013-08-07 09:05:00,
2013-08-07 03:20:00,84.8,64.0,29.69,SSE,161,0.0,1.0,49,0.00,,,0.00,weatherlink.com 1.10,2013-08-07 09:20:00,
2013-08-07 03:35:00,84.3,64.0,29.69,SSE,161,0.0,0.0,50,0.00,,,0.00,weatherlink.com 1.10,2013-08-07 09:35:00,
2013-08-07 03:50:00,82.9,63.0,29.70,NNE,19,0.0,6.0,51,0.00,,,0.00,weatherlink.com 1.10,2013-08-07 09:50:00,
2013-08-07 04:05:00,82.8,63.0,29.70,NNE,18,0.0,3.0,52,0.00,,,0.00,weatherlink.com 1.10,2013-08-07 10:05:00,
2013-08-07 04:20:00,82.6,63.0,29.70,NNE,18,0.0,2.0,52,0.00,,,0.00,weatherlink.com 1.10,2013-08-07 10:20:00,
2013-08-07 04:35:00,82.7,63.0,29.70,NE,43,4.0,8.0,52,0.00,,,0.00,weatherlink.com 1.10,2013-08-07 10:35:00,
2013-08-07 04:50:00,81.9,64.0,29.70,NE,56,0.0,11.0,54,0.00,,,0.00,weatherlink.com 1.10,2013-08-07 10:50:00,
2013-08-07 05:05:00,81.0,64.0,29.70,NE,51,0.0,7.0,56,0.00,,,0.00,weatherlink.com 1.10,2013-08-07 11:05:00,
2013-08-07 05:20:00,80.0,64.0,29.70,NE,38,1.0,6.0,58,0.00,,,0.00,weatherlink.com 1.10,2013-08-07 11:20:00,
2013-08-07 05:35:00,79.5,64.0,29.71,NNE,33,0.0,5.0,59,0.00,,,0.00,weatherlink.com 1.10,2013-08-07 11:35:00,
2013-08-07 05:50:00,79.1,64.0,29.71,NNE,33,3.0,5.0,60,0.00,,,0.00,weatherlink.com 1.10,2013-08-07 11:50:00,
2013-08-07 06:05:00,78.6,64.0,29.71,NNE,33,0.0,4.0,61,0.00,,,0.00,weatherlink.com 1.10,2013-08-07 12:05:00,
2013-08-07 06:20:00,78.3,64.0,29.73,NE,39,0.0,3.0,61,0.00,,,0.00,weatherlink.com 1.10,2013-08-07 12:20:00,
2013-08-07 06:35:00,78.1,64.0,29.72,NE,38,0.0,5.0,62,0.00,,,0.00,weatherlink.com 1.10,2013-08-07 12:35:00,
2013-08-07 06:51:00,78.2,64.0,29.73,NE,39,0.0,2.0,62,0.00,,,0.00,weatherlink.com 1.10,2013-08-07 12:51:00,
2013-08-07 07:06:00,78.9,64.0,29.73,NE,38,0.0,1.0,61,0.00,,,0.00,weatherlink.com 1.10,2013-08-07 13:06:00,
2013-08-07 07:21:00,79.5,64.0,29.74,NE,38,0.0,4.0,60,0.00,,,0.00,weatherlink.com 1.10,2013-08-07 13:21:00,
2013-08-07 07:36:00,79.6,64.0,29.73,NE,38,1.0,1.0,60,0.00,,,0.00,weatherlink.com 1.10,2013-08-07 13:36:00,
2013-08-07 07:51:00,81.1,65.0,29.73,NE,39,0.0,1.0,58,0.00,,,0.00,weatherlink.com 1.10,2013-08-07 13:51:00,
2013-08-07 08:06:00,84.0,65.0,29.73,ENE,65,5.0,8.0,53,0.00,,,0.00,weatherlink.com 1.10,2013-08-07 14:06:00,
2013-08-07 08:21:00,84.4,64.0,29.72,East,81,5.0,9.0,51,0.00,,,0.00,weatherlink.com 1.10,2013-08-07 14:21:00,
2013-08-07 08:36:00,84.7,65.0,29.73,East,79,0.0,4.0,51,0.00,,,0.00,weatherlink.com 1.10,2013-08-07 14:36:00,
2013-08-07 08:51:00,85.1,65.0,29.72,SE,131,3.0,8.0,51,0.00,,,0.00,weatherlink.com 1.10,2013-08-07 14:51:00,
2013-08-07 09:06:00,87.5,65.0,29.71,ESE,104,4.0,10.0,48,0.00,,,0.00,weatherlink.com 1.10,2013-08-07 15:06:00,
2013-08-07 09:21:00,88.4,64.0,29.71,SE,143,6.0,10.0,45,0.00,,,0.00,weatherlink.com 1.10,2013-08-07 15:21:00,
2013-08-07 09:36:00,88.8,65.0,29.72,SE,135,2.0,7.0,45,0.00,,,0.00,weatherlink.com 1.10,2013-08-07 15:36:00,
2013-08-07 09:51:00,88.4,64.0,29.73,SE,141,0.0,6.0,45,0.00,,,0.00,weatherlink.com 1.10,2013-08-07 15:51:00,
2013-08-07 10:06:00,88.4,64.0,29.76,SE,141,0.0,0.0,45,0.00,,,0.00,weatherlink.com 1.10,2013-08-07 16:06:00,
2013-08-07 10:21:00,89.1,66.0,29.76,NNE,23,11.0,12.0,46,0.00,,,0.00,weatherlink.com 1.10,2013-08-07 16:21:00,
2013-08-07 10:36:00,89.2,65.0,29.77,NNE,30,2.0,10.0,45,0.00,,,0.00,weatherlink.com 1.10,2013-08-07 16:36:00,
2013-08-07 10:51:00,89.7,65.0,29.78,North,10,9.0,10.0,44,0.00,,,0.00,weatherlink.com 1.10,2013-08-07 16:51:00,
2013-08-07 11:06:00,89.0,66.0,29.78,NNW,345,8.0,12.0,47,0.00,,,0.00,weatherlink.com 1.10,2013-08-07 17:06:00,
2013-08-07 11:21:00,89.3,66.0,29.78,North,354,14.0,19.0,47,0.00,,,0.00,weatherlink.com 1.10,2013-08-07 17:21:00,
2013-08-07 11:36:00,89.3,66.0,29.77,North,359,10.0,18.0,46,0.00,,,0.00,weatherlink.com 1.10,2013-08-07 17:36:00,
2013-08-07 11:51:00,89.7,66.0,29.77,North,8,14.0,15.0,45,0.00,,,0.00,weatherlink.com 1.10,2013-08-07 17:51:00,
2013-08-07 12:06:00,90.0,65.0,29.76,NNE,15,2.0,13.0,44,0.00,,,0.00,weatherlink.com 1.10,2013-08-07 18:06:00,
2013-08-07 12:21:00,89.3,65.0,29.75,NE,34,2.0,12.0,45,0.00,,,0.00,weatherlink.com 1.10,2013-08-07 18:21:00,
2013-08-07 12:36:00,89.4,65.0,29.75,NE,35,7.0,10.0,44,0.00,,,0.00,weatherlink.com 1.10,2013-08-07 18:36:00,
2013-08-07 12:51:00,90.5,64.0,29.75,NNE,21,5.0,11.0,42,0.00,,,0.00,weatherlink.com 1.10,2013-08-07 18:51:00,
2013-08-07 13:06:00,91.1,65.0,29.75,NNE,31,3.0,9.0,42,0.00,,,0.00,weatherlink.com 1.10,2013-08-07 19:06:00,
2013-08-07 13:21:00,92.1,65.0,29.75,NE,45,4.0,11.0,41,0.00,,,0.00,weatherlink.com 1.10,2013-08-07 19:21:00,
2013-08-07 13:36:00,92.5,65.0,29.75,NE,34,3.0,9.0,40,0.00,,,0.00,weatherlink.com 1.10,2013-08-07 19:36:00,
2013-08-07 13:51:00,92.9,64.0,29.75,ENE,57,0.0,6.0,39,0.00,,,0.00,weatherlink.com 1.10,2013-08-07 19:51:00,
2013-08-07 14:06:00,95.0,64.0,29.74,ENE,68,5.0,8.0,36,0.00,,,0.00,weatherlink.com 1.10,2013-08-07 20:06:00,
2013-08-07 14:21:00,96.4,64.0,29.73,NE,44,7.0,10.0,34,0.00,,,0.00,weatherlink.com 1.10,2013-08-07 20:21:00,
2013-08-07 14:36:00,95.8,63.0,29.73,NNE,22,8.0,11.0,34,0.00,,,0.00,weatherlink.com 1.10,2013-08-07 20:36:00,
2013-08-07 14:51:00,97.0,63.0,29.72,NE,43,0.0,11.0,33,0.00,,,0.00,weatherlink.com 1.10,2013-08-07 20:51:00,
2013-08-07 15:06:00,97.2,64.0,29.72,ENE,68,5.0,12.0,33,0.00,,,0.00,weatherlink.com 1.10,2013-08-07 21:06:00,
2013-08-07 15:21:00,97.2,63.0,29.71,NE,37,8.0,14.0,32,0.00,,,0.00,weatherlink.com 1.10,2013-08-07 21:21:00,
2013-08-07 15:36:00,98.2,63.0,29.70,NNE,33,3.0,10.0,31,0.00,,,0.00,weatherlink.com 1.10,2013-08-07 21:36:00,
2013-08-07 15:51:00,98.6,63.0,29.70,NE,42,3.0,9.0,31,0.00,,,0.00,weatherlink.com 1.10,2013-08-07 21:51:00,
2013-08-07 16:06:00,98.7,64.0,29.69,NNE,14,6.0,10.0,32,0.00,,,0.00,weatherlink.com 1.10,2013-08-07 22:06:00,
2013-08-07 16:21:00,99.1,64.0,29.68,NE,48,7.0,12.0,32,0.00,,,0.00,weatherlink.com 1.10,2013-08-07 22:21:00,
2013-08-07 16:36:00,99.4,64.0,29.67,ENE,60,7.0,13.0,31,0.00,,,0.00,weatherlink.com 1.10,2013-08-07 22:36:00,
2013-08-07 16:51:00,99.8,63.0,29.67,ENE,69,2.0,13.0,30,0.00,,,0.00,weatherlink.com 1.10,2013-08-07 22:51:00,
2013-08-07 17:06:00,99.9,62.0,29.66,ENE,71,7.0,9.0,29,0.00,,,0.00,weatherlink.com 1.10,2013-08-07 23:06:00,
2013-08-07 17:21:00,99.9,62.0,29.65,East,97,6.0,11.0,29,0.00,,,0.00,weatherlink.com 1.10,2013-08-07 23:21:00,
2013-08-07 17:36:00,99.8,63.0,29.65,East,83,7.0,15.0,30,0.00,,,0.00,weatherlink.com 1.10,2013-08-07 23:36:00,
2013-08-07 17:52:00,98.6,64.0,29.65,East,80,9.0,16.0,32,0.00,,,0.00,weatherlink.com 1.10,2013-08-07 23:52:00,
2013-08-07 18:07:00,98.1,64.0,29.65,East,81,9.0,12.0,33,0.00,,,0.00,weatherlink.com 1.10,2013-08-08 00:07:00,
2013-08-07 18:22:00,97.4,64.0,29.65,ENE,61,7.0,12.0,33,0.00,,,0.00,weatherlink.com 1.10,2013-08-08 00:22:00,
2013-08-07 18:37:00,96.3,65.0,29.65,ENE,66,5.0,12.0,35,0.00,,,0.00,weatherlink.com 1.10,2013-08-08 00:37:00,
2013-08-07 18:52:00,95.6,65.0,29.65,ENE,64,4.0,10.0,36,0.00,,,0.00,weatherlink.com 1.10,2013-08-08 00:52:00,
2013-08-07 19:07:00,95.2,65.0,29.65,ENE,68,3.0,13.0,37,0.00,,,0.00,weatherlink.com 1.10,2013-08-08 01:07:00,
2013-08-07 19:22:00,94.5,65.0,29.66,ENE,66,7.0,10.0,38,0.00,,,0.00,weatherlink.com 1.10,2013-08-08 01:22:00,
2013-08-07 19:37:00,94.0,65.0,29.67,ENE,74,8.0,9.0,38,0.00,,,0.00,weatherlink.com 1.10,2013-08-08 01:37:00,
2013-08-07 19:52:00,93.3,66.0,29.67,ENE,71,0.0,9.0,40,0.00,,,0.00,weatherlink.com 1.10,2013-08-08 01:52:00,
2013-08-07 20:07:00,92.5,66.0,29.68,ENE,58,4.0,9.0,41,0.00,,,0.00,weatherlink.com 1.10,2013-08-08 02:07:00,
2013-08-07 20:22:00,91.9,66.0,29.68,ENE,61,2.0,9.0,43,0.00,,,0.00,weatherlink.com 1.10,2013-08-08 02:22:00,
2013-08-07 20:37:00,91.3,66.0,29.69,NE,52,0.0,9.0,44,0.00,,,0.00,weatherlink.com 1.10,2013-08-08 02:37:00,
2013-08-07 20:52:00,90.8,67.0,29.68,NE,52,3.0,7.0,45,0.00,,,0.00,weatherlink.com 1.10,2013-08-08 02:52:00,
2013-08-07 21:07:00,90.1,67.0,29.70,WSW,256,7.0,11.0,46,0.00,,,0.00,weatherlink.com 1.10,2013-08-08 03:07:00,
2013-08-07 21:22:00,90.6,67.0,29.76,SSW,200,17.0,23.0,46,0.00,,,0.00,weatherlink.com 1.10,2013-08-08 03:22:00,
2013-08-07 21:37:00,73.0,69.0,29.83,SSE,160,24.0,44.0,86,0.79,,,0.79,weatherlink.com 1.10,2013-08-08 03:37:00,
2013-08-07 22:37:00,70.6,67.0,29.75,East,89,2.0,10.0,87,0.38,,,1.24,weatherlink.com 1.10,2013-08-08 04:37:00,
2013-08-07 22:52:00,71.6,67.0,29.75,ENE,77,3.0,5.0,86,0.05,,,1.24,weatherlink.com 1.10,2013-08-08 04:52:00,
2013-08-07 23:07:00,71.7,67.0,29.74,ENE,71,0.0,3.0,84,0.01,,,1.25,weatherlink.com 1.10,2013-08-08 05:07:00,
2013-08-07 23:23:00,72.5,68.0,29.75,NE,55,0.0,5.0,86,0.01,,,1.25,weatherlink.com 1.10,2013-08-08 05:23:00,
2013-08-07 23:38:00,72.5,69.0,29.77,ESE,104,0.0,6.0,88,0.01,,,1.25,weatherlink.com 1.10,2013-08-08 05:38:00,
2013-08-07 23:53:00,72.5,69.0,29.76,ESE,102,0.0,0.0,88,0.00,,,1.25,weatherlink.com 1.10,2013-08-08 05:53:00,